Weather in Santo Domingo Este

Dominican Republic     18°30′19″N   69°51′24″W
temp.,
°C
wind,
m/s
gust,
m/s
humid.,
%
clouds,
%
prec.,
mm/h
press.,
hPa
HPBL,
m
27 november, sat
sat2723:00+22nne228670 0.0 101555
02:00+22nne128641 0.0 101346
05:00+21n11906 0.0 101337
08:00+22nne1285100 0.0 101598
11:00+28nne23575 0.0 10161110
14:00+31ene134982 0.0 10121681
17:00+28ne366162 0.1 1012597
20:00+23ne377697 0.1 1015243
28 november, sun
sun2823:00+21n24853 0.0 1015106
02:00+21n258818 0.0 1015114
05:00+20n3590100 0.0 1014134
08:00+22n248287 0.0 1016141
11:00+29nne345662 0.0 10161285
14:00+32ene234346 0.0 10121893
17:00+28ene355961 0.0 1012703
20:00+24ne378225 0.1 1014284
29 november, mon
mon2923:00+22nnw249265 0.1 1015106
02:00+21n249399 0.1 101497
05:00+21n239417 0.0 101375
08:00+22nnw23895 0.0 1015118
11:00+29ne23585 0.0 10151125
14:00+31s224935 0.0 10121568
17:00+28sse34675 0.0 1012504
20:00+23e22915 0.7 101454
30 november, tue
tue3023:00+22nne229518 0.3 101560
02:00+22nne229612 0.4 101451
05:00+21n239617 0.0 101472
08:00+22n249431 0.0 1016132
11:00+29ne34596 0.0 10161174
14:00+32ene2342100 0.0 10131944
17:00+29e3555100 0.0 1013643
20:00+24nne3783100 0.0 1015211
1 december, wed
wed123:00+22nnw2492100 0.0 1016111
02:00+22nnw2494100 0.0 1015114
05:00+22n249586 0.0 1015111
08:00+23n35905 0.0 1017166
11:00+30ne355713 0.0 10171461
14:00+32ese244889 0.1 10141793
17:00+27e247699 0.5 1014333
20:00+23ne279137 0.9 1016182